Location: Caltech
(34.1382°N, 118.1253°W)
Time: 14:01:12
(UTC-07:00)

Cosmos 1943 Rocket - Visible Passes

Search period start: 28 June 2017 00:00
Search period end: 08 July 2017 00:00
Orbit: 812 x 844 km, 71.0° (Epoch: 27 June)

Date Brightness Start Highest point End Pass type
(mag) Time Alt. Az. Time Alt. Az. Time Alt. Az.
28 Jun 4.3 02:00:50 15° ESE 02:01:09 15° E 02:04:11 10° ENE visible
28 Jun 2.3 03:42:22 39° SW 03:44:17 60° WNW 03:49:51 10° NNE visible
29 Jun 4.5 01:42:16 13° E 01:42:16 13° E 01:44:22 10° ENE visible
29 Jun 2.2 03:23:48 51° SW 03:25:06 69° WNW 03:30:43 10° NNE visible
30 Jun 4.7 01:23:40 10° E 01:23:40 10° E 01:23:56 10° E visible
30 Jun 2.0 03:05:12 67° SW 03:05:56 79° WNW 03:11:35 10° NNE visible
01 Jul 2.0 02:46:34 84° SSW 02:46:46 89° ESE 02:52:25 10° NNE visible
01 Jul 4.3 04:29:24 10° WNW 04:31:14 11° NW 04:33:04 10° NW visible
02 Jul 2.2 02:27:54 75° ENE 02:27:54 75° ENE 02:33:14 10° NNE visible
02 Jul 4.2 04:09:25 10° W 04:11:56 13° NW 04:14:35 10° NNW visible
03 Jul 2.5 02:09:11 60° ENE 02:09:11 60° ENE 02:14:01 10° NNE visible
03 Jul 4.1 03:50:43 13° WNW 03:52:40 15° NW 03:55:53 10° NNW visible
04 Jul 2.9 01:50:27 48° ENE 01:50:27 48° ENE 01:54:48 10° NNE visible
04 Jul 4.0 03:31:58 16° WNW 03:33:24 17° WNW 03:37:04 10° NNW visible
05 Jul 3.2 01:31:41 39° ENE 01:31:41 39° ENE 01:35:34 10° NNE visible
05 Jul 3.8 03:13:12 19° WNW 03:14:08 20° WNW 03:18:11 10° NNW visible
06 Jul 3.5 01:12:53 32° ENE 01:12:53 32° ENE 01:16:18 10° NE visible
06 Jul 3.7 02:54:24 22° WNW 02:54:54 23° WNW 02:59:15 10° N visible
07 Jul 3.7 00:54:03 27° ENE 00:54:03 27° ENE 00:57:00 10° NE visible
07 Jul 3.6 02:35:34 26° WNW 02:35:39 26° WNW 02:40:17 10° N visible
